Weather in Vysokovsk

Russia / Moscow Oblast     56°19′13″N   36°33′04″E
temp.,
°C
wind,
m/s
gust,
m/s
humid.,
%
clouds,
%
prec.,
mm/h
press.,
hPa
HPBL,
m
6 may, thu
thu600:00+6sse239829 0.1 100759
03:00+7sse31195100 0.1 1005240
06:00+8s51593100 0.0 1004394
09:00+12s61482100 0.0 1002836
12:00+12s7167447 0.1 10011376
15:00+15s9156178 0.2 9991701
18:00+7wsw61390100 1.1 1002819
21:00+6sw5118891 1.1 1005682
7 may, fri
fri700:00+5sw5129042 0.0 1007667
03:00+4sw512935 0.0 1008523
06:00+4sw512881 0.0 1009570
09:00+8sw510620 0.0 10111107
12:00+12sw6104192 0.0 10112486
15:00+12sw71159100 0.4 10111836
18:00+10sw5974100 0.9 10111189
21:00+8s41183100 1.0 1011428
8 may, sat
sat800:00+8sse51383100 0.1 1010525
03:00+7sse71586100 1.5 1007988
06:00+7sse61493100 1.8 1006762
09:00+7sse61294100 5.3 1004811
12:00+7sse41097100 2.1 1002598
15:00+9ssw3794100 2.1 1001529
18:00+8sw51093100 2.4 10011164
21:00+4wsw71297100 3.1 1004889
9 may, sun
sun900:00+4wsw71493100 0.2 10061222
03:00+3wsw61288100 0.2 10091097
06:00+3w51085100 0.0 10121042
09:00+6wnw596750 0.0 10151197
12:00+10wnw584593 0.1 10172147
15:00+11wnw573670 0.1 10192454
18:00+10nw46465 0.0 10212184
21:00+5wnw11665 0.0 102410
10 may, mon
mon1000:00+3sw116688 0.0 102610
03:00+3sw22675 0.0 102710
06:00+4ssw226864 0.0 102955
09:00+11ssw344812 0.0 1029604
12:00+14sw34395 0.0 10291579
15:00+15wsw33415 0.0 10281430
18:00+14sw22522 0.0 10281045
21:00+9ssw12730 0.0 102911